DLH594A DNAA-DNPO

Flight info

Callsign DLH594A
Flight time 0h 41m
Altitude 32000
Route IKVAD1Q IKVAD DCT IVBUV UV456 BORMO BORMO1R
Aircraft A343/H-SDE2E3FGHIJ4J5M1RWXY/LB1D1

Departure

Time 2026-05-06 17:45
Airport Nnamdi Azikiwe International Airport (DNAA)

Arrival

Time 2026-05-06 18:26
Airport Port Harcourt International Airport (DNPO)
Time Latitude Longitude Altitude Speed Heading
2026-05-06 17:06 9.00576 7.26755 1135 ft 0 kts
2026-05-06 17:34 9.00575 7.26755 1127 ft 2 kts
2026-05-06 17:34 9.00549 7.26755 1132 ft 4 kts 355°
2026-05-06 17:34 9.00522 7.26758 1136 ft 4 kts 347°
2026-05-06 17:34 9.00497 7.26766 1135 ft 4 kts 328°
2026-05-06 17:35 9.00482 7.26782 1136 ft 4 kts 262°
2026-05-06 17:35 9.00483 7.26786 1136 ft 0 kts 250°
2026-05-06 17:38 9.00479 7.26777 1136 ft 3 kts 250°
2026-05-06 17:38 9.00469 7.26748 1132 ft 6 kts 250°
2026-05-06 17:39 9.00449 7.26702 1135 ft 8 kts 245°
2026-05-06 17:39 9.00448 7.26640 1120 ft 10 kts 308°
2026-05-06 17:39 9.00517 7.26601 1117 ft 13 kts 325°
2026-05-06 17:39 9.00590 7.26528 1115 ft 13 kts 306°
2026-05-06 17:40 9.00655 7.26505 1117 ft 10 kts 27°
2026-05-06 17:40 9.00710 7.26543 1114 ft 10 kts 36°
2026-05-06 17:40 9.00769 7.26584 1117 ft 11 kts 34°
2026-05-06 17:40 9.00835 7.26630 1117 ft 12 kts 35°
2026-05-06 17:41 9.00906 7.26681 1124 ft 14 kts 35°
2026-05-06 17:41 9.00997 7.26746 1118 ft 17 kts 35°
2026-05-06 17:41 9.01099 7.26818 1117 ft 18 kts 34°
2026-05-06 17:41 9.01198 7.26889 1137 ft 17 kts 35°
2026-05-06 17:42 9.01300 7.26960 1135 ft 19 kts 34°
2026-05-06 17:42 9.01414 7.27041 1135 ft 21 kts 36°
2026-05-06 17:42 9.01536 7.27126 1138 ft 22 kts 34°
2026-05-06 17:42 9.01669 7.27221 1135 ft 23 kts 35°
2026-05-06 17:43 9.01799 7.27312 1138 ft 21 kts 34°
2026-05-06 17:43 9.01879 7.27364 1137 ft 10 kts 21°
2026-05-06 17:43 9.01940 7.27346 1139 ft 10 kts 315°
2026-05-06 17:43 9.01978 7.27284 1138 ft 11 kts 301°
2026-05-06 17:44 9.01979 7.27235 1136 ft 7 kts 228°
2026-05-06 17:44 9.01959 7.27221 1138 ft 0 kts 215°
2026-05-06 17:44 9.01918 7.27192 1139 ft 30 kts 214°
2026-05-06 17:44 9.01525 7.26913 1139 ft 106 kts 214°
2026-05-06 17:45 9.00745 7.26366 1114 ft 164 kts 214°
2026-05-06 17:45 8.99754 7.25683 1710 ft 171 kts 213°
2026-05-06 17:45 8.98738 7.25004 2410 ft 182 kts 212°
2026-05-06 17:45 8.97509 7.24493 2978 ft 203 kts 188°
2026-05-06 17:46 8.95995 7.24503 3483 ft 234 kts 181°
2026-05-06 17:46 8.94296 7.24376 4258 ft 251 kts 185°
2026-05-06 17:46 8.92513 7.24261 5189 ft 262 kts 182°
2026-05-06 17:46 8.90653 7.24219 6156 ft 273 kts 179°
2026-05-06 17:47 8.88717 7.24192 7050 ft 283 kts 180°
2026-05-06 17:47 8.86722 7.24114 8034 ft 290 kts 180°
2026-05-06 17:47 8.84694 7.23976 9096 ft 294 kts 181°
2026-05-06 17:47 8.82626 7.23809 10024 ft 303 kts 180°
2026-05-06 17:48 8.80454 7.23697 10586 ft 324 kts 179°
2026-05-06 17:48 8.78146 7.23594 11218 ft 338 kts 180°
2026-05-06 17:48 8.75771 7.23477 12020 ft 346 kts 180°
2026-05-06 17:48 8.73343 7.23351 12844 ft 352 kts 180°
2026-05-06 17:49 8.70879 7.23220 13704 ft 357 kts 181°
2026-05-06 17:49 8.68378 7.23085 14481 ft 362 kts 181°
2026-05-06 17:49 8.65851 7.22949 15286 ft 366 kts 181°
2026-05-06 17:49 8.63328 7.22811 16093 ft 370 kts 181°
2026-05-06 17:50 8.60745 7.22671 16947 ft 373 kts 181°
2026-05-06 17:50 8.58138 7.22529 17795 ft 377 kts 181°
2026-05-06 17:50 8.55510 7.22387 18554 ft 381 kts 181°
2026-05-06 17:50 8.52849 7.22242 19250 ft 385 kts 181°
2026-05-06 17:51 8.50156 7.22095 19948 ft 389 kts 181°
2026-05-06 17:51 8.47441 7.21948 20647 ft 393 kts 181°
2026-05-06 17:51 8.44695 7.21799 21333 ft 397 kts 181°
2026-05-06 17:51 8.41923 7.21649 22009 ft 401 kts 181°
2026-05-06 17:52 8.39123 7.21497 22674 ft 405 kts 181°
2026-05-06 17:52 8.36296 7.21344 23340 ft 409 kts 181°
2026-05-06 17:52 8.33442 7.21189 23865 ft 413 kts 181°
2026-05-06 17:52 8.30553 7.21032 24356 ft 418 kts 181°
2026-05-06 17:53 8.27628 7.20874 24851 ft 423 kts 181°
2026-05-06 17:53 8.24674 7.20714 25354 ft 428 kts 181°
2026-05-06 17:53 8.21689 7.20552 25855 ft 432 kts 181°
2026-05-06 17:53 8.18670 7.20389 26331 ft 436 kts 181°
2026-05-06 17:54 8.15628 7.20221 26810 ft 440 kts 182°
2026-05-06 17:54 8.12555 7.20044 27305 ft 444 kts 182°
2026-05-06 17:54 8.09458 7.19863 27780 ft 448 kts 182°
2026-05-06 17:54 8.06334 7.19681 28236 ft 452 kts 182°
2026-05-06 17:55 8.03187 7.19498 28675 ft 455 kts 182°
2026-05-06 17:55 8.00012 7.19314 29132 ft 459 kts 182°
2026-05-06 17:55 7.97896 7.19193 29422 ft 461 kts 182°
2026-05-06 17:55 7.93581 7.18945 29965 ft 467 kts 182°
2026-05-06 17:56 7.90329 7.18760 30344 ft 469 kts 182°
2026-05-06 17:56 7.87065 7.18573 30736 ft 471 kts 182°
2026-05-06 17:56 7.83795 7.18361 31167 ft 472 kts 184°
2026-05-06 17:56 7.80518 7.18054 31613 ft 473 kts 184°
2026-05-06 17:57 7.77235 7.17700 31802 ft 473 kts 185°
2026-05-06 17:57 7.74024 7.17340 31828 ft 458 kts 185°
2026-05-06 17:57 7.70817 7.16985 31831 ft 469 kts 185°
2026-05-06 17:57 7.67531 7.16635 31843 ft 481 kts 184°
2026-05-06 17:58 7.60827 7.15948 31836 ft 488 kts 184°
2026-05-06 17:58 7.54081 7.15319 31841 ft 486 kts 184°
2026-05-06 17:59 7.47341 7.14734 31845 ft 486 kts 184°
2026-05-06 17:59 7.40599 7.14143 31840 ft 486 kts 184°
2026-05-06 18:00 7.33866 7.13544 31841 ft 486 kts 184°
2026-05-06 18:00 7.27120 7.12941 31841 ft 486 kts 184°
2026-05-06 18:01 7.20379 7.12337 31841 ft 486 kts 184°
2026-05-06 18:01 7.13638 7.11735 31849 ft 486 kts 184°
2026-05-06 18:02 7.06903 7.11132 31849 ft 486 kts 184°
2026-05-06 18:02 7.00166 7.10531 31843 ft 486 kts 184°
2026-05-06 18:03 6.93431 7.09877 31844 ft 487 kts 186°
2026-05-06 18:03 6.86745 7.08770 31843 ft 487 kts 187°
2026-05-06 18:04 6.83378 7.08397 31740 ft 486 kts 184°
2026-05-06 18:04 6.80017 7.08098 31347 ft 485 kts 184°
2026-05-06 18:04 6.76641 7.07848 30803 ft 488 kts 182°
2026-05-06 18:04 6.73242 7.07631 30240 ft 492 kts 182°
2026-05-06 18:05 6.69812 7.07429 29638 ft 495 kts 182°
2026-05-06 18:05 6.66359 7.07232 29038 ft 498 kts 182°
2026-05-06 18:05 6.62906 7.07034 28523 ft 496 kts 182°
2026-05-06 18:05 6.59482 7.06835 27902 ft 489 kts 182°
2026-05-06 18:06 6.56111 7.06636 27336 ft 482 kts 182°
2026-05-06 18:06 6.52776 7.06428 26820 ft 479 kts 183°
2026-05-06 18:06 6.49473 7.06157 26203 ft 473 kts 184°
2026-05-06 18:06 6.46214 7.05846 25608 ft 468 kts 184°
2026-05-06 18:07 6.42993 7.05525 25076 ft 463 kts 184°
2026-05-06 18:07 6.39799 7.05209 24542 ft 458 kts 184°
2026-05-06 18:07 6.36649 7.04905 23977 ft 452 kts 184°
2026-05-06 18:07 6.33532 7.04611 23461 ft 448 kts 184°
2026-05-06 18:08 6.30444 7.04326 22873 ft 443 kts 184°
2026-05-06 18:08 6.27386 7.04047 22312 ft 440 kts 184°
2026-05-06 18:08 6.24385 7.03775 21794 ft 437 kts 183°
2026-05-06 18:08 6.21377 7.03503 21266 ft 433 kts 183°
2026-05-06 18:09 6.18342 7.03228 20749 ft 430 kts 183°
2026-05-06 18:09 6.15419 7.02962 20236 ft 426 kts 183°
2026-05-06 18:09 6.12469 7.02695 19737 ft 424 kts 183°
2026-05-06 18:09 6.09542 7.02433 19194 ft 421 kts 183°
2026-05-06 18:10 6.06638 7.02193 18672 ft 417 kts 182°
2026-05-06 18:10 6.03751 7.01957 18177 ft 416 kts 182°
2026-05-06 18:10 6.00875 7.01722 17725 ft 411 kts 182°
2026-05-06 18:10 5.98055 7.01488 17237 ft 403 kts 182°
2026-05-06 18:11 5.95305 7.01260 16723 ft 389 kts 182°
2026-05-06 18:11 5.93541 7.01113 16386 ft 381 kts 182°
2026-05-06 18:11 5.90055 7.00824 15712 ft 373 kts 181°
2026-05-06 18:11 5.87501 7.00612 15222 ft 363 kts 181°
2026-05-06 18:12 5.85851 7.00475 14947 ft 357 kts 181°
2026-05-06 18:12 5.83408 7.00273 14530 ft 348 kts 181°
2026-05-06 18:12 5.81025 7.00236 14096 ft 338 kts 169°
2026-05-06 18:12 5.78748 7.00714 13672 ft 332 kts 160°
2026-05-06 18:13 5.76526 7.01354 13164 ft 333 kts 159°
2026-05-06 18:13 5.74299 7.02009 12685 ft 334 kts 159°
2026-05-06 18:13 5.72072 7.02659 12199 ft 333 kts 159°
2026-05-06 18:13 5.69846 7.03306 11749 ft 332 kts 159°
2026-05-06 18:14 5.67631 7.03946 11296 ft 331 kts 159°
2026-05-06 18:14 5.65430 7.04581 10848 ft 326 kts 159°
2026-05-06 18:14 5.63270 7.05202 10442 ft 320 kts 159°
2026-05-06 18:14 5.61153 7.05812 10072 ft 313 kts 159°
2026-05-06 18:15 5.59081 7.06408 9715 ft 306 kts 159°
2026-05-06 18:15 5.57059 7.06991 9328 ft 300 kts 159°
2026-05-06 18:15 5.55064 7.07568 8966 ft 296 kts 159°
2026-05-06 18:15 5.53089 7.08140 8617 ft 296 kts 160°
2026-05-06 18:16 5.51120 7.08707 8274 ft 294 kts 160°
2026-05-06 18:16 5.49108 7.09049 7939 ft 295 kts 175°
2026-05-06 18:16 5.47057 7.08994 7606 ft 294 kts 180°
2026-05-06 18:16 5.45026 7.08864 7311 ft 291 kts 181°
2026-05-06 18:17 5.43015 7.08734 7074 ft 289 kts 181°
2026-05-06 18:17 5.41016 7.08608 6829 ft 287 kts 181°
2026-05-06 18:17 5.39026 7.08487 6553 ft 285 kts 181°
2026-05-06 18:17 5.37069 7.08369 6276 ft 279 kts 181°
2026-05-06 18:18 5.35163 7.08255 5990 ft 269 kts 182°
2026-05-06 18:18 5.33324 7.08145 5703 ft 260 kts 182°
2026-05-06 18:18 5.31542 7.08040 5411 ft 252 kts 182°
2026-05-06 18:18 5.29835 7.07939 5110 ft 238 kts 182°
2026-05-06 18:19 5.28242 7.07846 4823 ft 221 kts 184°
2026-05-06 18:19 5.26738 7.07758 4581 ft 214 kts 184°
2026-05-06 18:19 5.25305 7.07517 4337 ft 209 kts 197°
2026-05-06 18:19 5.23984 7.07000 4078 ft 198 kts 206°
2026-05-06 18:20 5.22801 7.06389 3931 ft 186 kts 208°
2026-05-06 18:20 5.21641 7.05763 3909 ft 187 kts 208°
2026-05-06 18:20 5.20498 7.05147 3833 ft 184 kts 207°
2026-05-06 18:20 5.19406 7.04571 3656 ft 176 kts 208°
2026-05-06 18:21 5.18343 7.04001 3419 ft 170 kts 208°
2026-05-06 18:21 5.17313 7.03444 3193 ft 166 kts 208°
2026-05-06 18:21 5.16312 7.02904 2985 ft 160 kts 208°
2026-05-06 18:21 5.15363 7.02393 2758 ft 150 kts 208°
2026-05-06 18:22 5.14475 7.01914 2577 ft 139 kts 207°
2026-05-06 18:22 5.13662 7.01476 2416 ft 127 kts 207°
2026-05-06 18:22 5.12891 7.01061 2263 ft 125 kts 207°
2026-05-06 18:22 5.12122 7.00646 2093 ft 126 kts 207°
2026-05-06 18:23 5.11350 7.00233 1928 ft 126 kts 206°
2026-05-06 18:23 5.10578 6.99824 1751 ft 125 kts 206°
2026-05-06 18:23 5.09823 6.99396 1648 ft 125 kts 211°
2026-05-06 18:23 5.09060 6.98963 1483 ft 127 kts 205°
2026-05-06 18:24 5.08293 6.98549 1316 ft 125 kts 207°
2026-05-06 18:24 5.07527 6.98151 1116 ft 123 kts 205°
2026-05-06 18:24 5.06776 6.97751 980 ft 123 kts 207°
2026-05-06 18:24 5.05994 6.97354 843 ft 126 kts 206°
2026-05-06 18:25 5.05227 6.96941 686 ft 124 kts 208°
2026-05-06 18:25 5.04476 6.96528 504 ft 122 kts 208°
2026-05-06 18:25 5.03727 6.96120 348 ft 122 kts 207°
2026-05-06 18:25 5.02995 6.95734 207 ft 118 kts 210°
2026-05-06 18:26 5.02266 6.95340 90 ft 117 kts 206°
2026-05-06 18:26 5.01682 6.95029 90 ft 69 kts 208°
2026-05-06 18:26 5.01337 6.94845 84 ft 44 kts 208°
2026-05-06 18:26 5.01135 6.94737 84 ft 23 kts 204°
2026-05-06 18:27 5.00996 6.94714 88 ft 18 kts 184°
2026-05-06 18:27 5.00884 6.94711 84 ft 13 kts 175°
2026-05-06 18:27 5.00817 6.94762 84 ft 12 kts 100°
2026-05-06 18:27 5.00869 6.94822 83 ft 13 kts 28°
2026-05-06 18:28 5.00963 6.94873 82 ft 18 kts 28°
2026-05-06 18:28 5.01069 6.94929 82 ft 19 kts 28°
2026-05-06 18:28 5.01166 6.94982 85 ft 14 kts 28°
2026-05-06 18:28 5.01257 6.95030 86 ft 16 kts 27°
2026-05-06 18:29 5.01364 6.95086 83 ft 16 kts 28°
2026-05-06 18:29 5.01442 6.95127 87 ft 10 kts 28°
2026-05-06 18:29 5.01502 6.95158 86 ft 9 kts 27°
2026-05-06 18:29 5.01519 6.95188 88 ft 5 kts 92°
2026-05-06 18:30 5.01503 6.95226 88 ft 7 kts 117°
2026-05-06 18:30 5.01485 6.95261 88 ft 3 kts 118°
2026-05-06 18:30 5.01475 6.95279 86 ft 2 kts 118°
2026-05-06 18:30 5.01472 6.95285 86 ft 0 kts 118°